Regional Weather Roundup
Issued by NWS

Home | Current Version | Previous Version | Text Only | Print | Product List | Glossary On
Versions: 1 2 3 4 5 6 7 8 9 10 11 12 13 14 15 16 17 18 19 20 21 22 23 24 25 26 27 28 29 30 31 32 33 34 35 36 37 38 39 40 41 42 43 44 45 46 47 48 49 50
000
ASUS43 KLMK 231210
RWRKY
KENTUCKY REGIONAL WEATHER ROUNDUP
NATIONAL WEATHER SERVICE LOUISVILLE KY
700 AM EST SUN FEB 23 2020

NOTE "FAIR" INDICATES FEW OR NO CLOUDS BELOW 12,000 FEET
WITH NO SIGNIFICANT WEATHER AND/OR OBSTRUCTIONS TO VISIBILITY.

KYZ001>023-026-027-061>063-070>075-231300-
WESTERN AND SOUTH CENTRAL KENTUCKY

CITY           SKY/WX    TMP DP  RH WIND       PRES   REMARKS
PADUCAH        FAIR      41  26  55 VRB3      30.17S
HENDERSON      MOCLDY    37  25  61 S7        30.17F WCI  32
OWENSBORO      FAIR      36  25  64 S7        30.19F WCI  30
HOPKINSVILLE   CLOUDY    41  23  48 S5        30.21R
BOWLING GREEN  FAIR      31  24  75 CALM      30.24R
GLASGOW        FAIR      33  22  64 SW3       30.23S
$$

KYZ024-025-028>034-038-045-046-053-231300-
NORTH CENTRAL KENTUCKY

CITY           SKY/WX    TMP DP  RH WIND       PRES   REMARKS
LOUISVILLE/SDF FAIR      33  19  56 SE7       30.19F WCI  27
LOUISVILLE/LOU FAIR      33  18  53 S6        30.20F WCI  28
FORT KNOX      CLOUDY    33  21  61 S6        30.20S WCI  27
$$

KYZ035>037-039>044-047>052-055>060-089>105-231300-
NORTHEAST KENTUCKY

CITY           SKY/WX    TMP DP  RH WIND       PRES   REMARKS
LEXINGTON      MOCLDY    32  17  54 S8        30.21S WCI  25
COVINGTON      FAIR      30  17  58 S10       30.17S WCI  21
FRANKFORT      MOCLDY    30  17  58 CALM      30.20S
$$

KYZ054-064>069-076>088-106>120-231300-
SOUTHEAST KENTUCKY

CITY           SKY/WX    TMP DP  RH WIND       PRES   REMARKS
JACKSON        FAIR      34  16  47 S7        30.22F WCI  28
LONDON         MOCLDY    25  20  81 S5        30.24S WCI  19
SOMERSET       CLOUDY    27  19  74 CALM      30.26S
MIDDLESBORO    FAIR      24  24  99 CALM      30.30S
MONTICELLO     PTSUNNY   27  25  92 W9        30.26F WCI  18
$$





USA.gov is the U.S. government's official web portal to all federal, state and local government web resources and services.